Time,TemperatureF,DewpointF,PressureIn,WindDirection,WindDirectionDegrees,WindSpeedMPH,WindSpeedGustMPH,Humidity,HourlyPrecipIn,Conditions,Clouds,dailyrainin,SoftwareType,DateUTC
2013-03-13 00:00:00,28.5,18.9,30.06,WNW,294,12.6,13.8,67,0.00,RA,,0.00,WeatherDisplay:10.37,2013-03-13 05:00:00,
2013-03-13 00:05:00,28.5,19.3,30.06,WSW,254,14.3,16.1,68,0.00,RA,,0.00,WeatherDisplay:10.37,2013-03-13 05:05:00,
2013-03-13 00:10:00,28.4,18.5,30.06,WSW,254,15.7,16.1,66,0.00,OVC,,0.00,WeatherDisplay:10.37,2013-03-13 05:10:00,
2013-03-13 00:15:00,28.4,18.8,30.06,WNW,292,6.3,9.2,67,0.00,OVC,,0.00,WeatherDisplay:10.37,2013-03-13 05:15:00,
2013-03-13 00:20:00,28.2,18.6,30.06,West,265,15.5,15.5,67,0.00,OVC,,0.00,WeatherDisplay:10.37,2013-03-13 05:20:00,
2013-03-13 00:25:00,28.1,18.5,30.06,WSW,257,13.9,26.5,67,0.00,OVC,,0.00,WeatherDisplay:10.37,2013-03-13 05:25:00,
2013-03-13 00:30:00,28.1,18.5,30.06,WSW,256,17.1,19.6,67,0.00,OVC,,0.00,WeatherDisplay:10.37,2013-03-13 05:30:00,
2013-03-13 00:35:00,27.9,19.0,30.06,West,279,6.9,15.0,69,0.00,OVC,,0.00,WeatherDisplay:10.37,2013-03-13 05:35:00,
2013-03-13 00:40:00,27.8,18.9,30.06,WSW,252,10.8,15.0,69,0.00,OVC,,0.00,WeatherDisplay:10.37,2013-03-13 05:40:00,
2013-03-13 00:45:00,27.8,19.3,30.06,SW,236,7.7,10.4,70,0.00,OVC,,0.00,WeatherDisplay:10.37,2013-03-13 05:45:00,
2013-03-13 00:50:00,27.6,19.1,30.06,SW,233,11.8,15.0,70,0.00,OVC,,0.00,WeatherDisplay:10.37,2013-03-13 05:50:00,
2013-03-13 00:55:00,27.5,19.0,30.06,West,272,9.5,13.8,70,0.00,CLR,,0.00,WeatherDisplay:10.37,2013-03-13 05:55:00,
2013-03-13 01:00:00,27.3,19.1,30.06,WNW,292,7.4,13.8,71,0.00,CLR,,0.00,WeatherDisplay:10.37,2013-03-13 06:00:00,
2013-03-13 01:05:00,27.2,19.0,30.06,West,267,13.1,18.4,71,0.00,CLR,,0.00,WeatherDisplay:10.37,2013-03-13 06:05:00,
2013-03-13 01:10:00,27.2,18.7,30.06,WSW,255,15.0,16.1,70,0.00,CLR,,0.00,WeatherDisplay:10.37,2013-03-13 06:10:00,
2013-03-13 01:15:00,27.2,18.7,30.06,West,270,6.7,10.5,70,0.00,CLR,,0.00,WeatherDisplay:10.37,2013-03-13 06:15:00,
2013-03-13 01:20:00,27.0,18.5,30.06,West,261,12.6,15.0,70,0.00,CLR,,0.00,WeatherDisplay:10.37,2013-03-13 06:20:00,
2013-03-13 01:25:00,27.0,17.8,30.06,WNW,296,14.9,18.4,68,0.00,CLR,,0.00,WeatherDisplay:10.37,2013-03-13 06:25:00,
2013-03-13 01:30:00,26.9,17.7,30.06,WNW,282,3.9,11.5,68,0.00,CLR,,0.00,WeatherDisplay:10.37,2013-03-13 06:30:00,
2013-03-13 01:35:00,26.7,17.9,30.06,West,264,12.8,16.1,69,0.00,CLR,,0.00,WeatherDisplay:10.37,2013-03-13 06:35:00,
2013-03-13 01:40:00,26.7,17.9,30.06,WSW,251,3.7,8.1,69,0.00,CLR,,0.00,WeatherDisplay:10.37,2013-03-13 06:40:00,
2013-03-13 01:45:00,26.7,17.9,30.06,WNW,286,4.3,10.4,69,0.00,CLR,,0.00,WeatherDisplay:10.37,2013-03-13 06:45:00,
2013-03-13 01:50:00,26.7,17.9,30.07,WSW,253,12.3,18.4,69,0.00,CLR,,0.00,WeatherDisplay:10.37,2013-03-13 06:50:00,
2013-03-13 01:55:00,26.9,17.7,30.07,WSW,240,10.5,16.1,68,0.00,CLR,,0.00,WeatherDisplay:10.37,2013-03-13 06:55:00,
2013-03-13 02:00:00,27.0,17.8,30.06,North,351,14.3,16.1,68,0.00,CLR,,0.00,WeatherDisplay:10.37,2013-03-13 07:00:00,
2013-03-13 02:05:00,27.0,17.5,30.07,WSW,250,6.7,19.6,67,0.00,CLR,,0.00,WeatherDisplay:10.37,2013-03-13 07:05:00,
2013-03-13 02:10:00,26.9,17.4,30.07,WSW,244,13.5,16.1,67,0.00,CLR,,0.00,WeatherDisplay:10.37,2013-03-13 07:10:00,
2013-03-13 02:15:00,26.7,17.6,30.07,West,264,9.1,16.1,68,0.00,SCT,,0.00,WeatherDisplay:10.37,2013-03-13 07:15:00,
2013-03-13 02:20:00,26.6,17.8,30.07,West,281,15.8,24.2,69,0.00,SCT,,0.00,WeatherDisplay:10.37,2013-03-13 07:20:00,
2013-03-13 02:25:00,26.6,17.8,30.07,West,281,9.0,10.4,69,0.00,SCT,,0.00,WeatherDisplay:10.37,2013-03-13 07:25:00,
2013-03-13 02:30:00,26.4,17.9,30.07,WNW,287,8.4,8.4,70,0.00,SCT,,0.00,WeatherDisplay:10.37,2013-03-13 07:30:00,
2013-03-13 02:35:00,26.3,17.8,30.07,WSW,248,7.0,13.8,70,0.00,OVC,,0.00,WeatherDisplay:10.37,2013-03-13 07:35:00,
2013-03-13 02:40:00,26.3,18.2,30.07,West,267,13.7,13.7,71,0.00,OVC,,0.00,WeatherDisplay:10.37,2013-03-13 07:40:00,
2013-03-13 02:45:00,26.3,17.8,30.07,WNW,282,7.5,15.0,70,0.00,OVC,,0.00,WeatherDisplay:10.37,2013-03-13 07:45:00,
2013-03-13 02:50:00,26.3,17.5,30.07,WSW,251,17.5,20.7,69,0.00,OVC,,0.00,WeatherDisplay:10.37,2013-03-13 07:50:00,
2013-03-13 02:55:00,26.3,17.5,30.07,West,273,5.8,13.8,69,0.00,OVC,,0.00,WeatherDisplay:10.37,2013-03-13 07:55:00,
2013-03-13 03:00:00,26.3,17.5,30.07,WSW,250,21.5,21.5,69,0.00,OVC,,0.00,WeatherDisplay:10.37,2013-03-13 08:00:00,
2013-03-13 03:07:00,26.3,17.5,30.07,WSW,240,19.8,22.5,69,0.00,OVC,,0.00,WeatherDisplay:10.37,2013-03-13 08:07:00,
2013-03-13 03:12:00,26.4,17.9,30.07,West,269,10.1,13.8,70,0.00,OVC,,0.00,WeatherDisplay:10.37,2013-03-13 08:12:00,
2013-03-13 03:17:00,26.4,17.9,30.07,WSW,238,7.9,15.0,70,0.00,OVC,,0.00,WeatherDisplay:10.37,2013-03-13 08:17:00,
2013-03-13 03:22:00,26.4,18.3,30.07,West,260,15.0,19.6,71,0.00,OVC,,0.00,WeatherDisplay:10.37,2013-03-13 08:22:00,
2013-03-13 03:27:00,26.3,18.2,30.07,West,281,20.1,23.0,71,0.00,OVC,,0.00,WeatherDisplay:10.37,2013-03-13 08:27:00,
2013-03-13 03:32:00,26.3,17.8,30.07,West,263,16.8,16.8,70,0.00,OVC,,0.00,WeatherDisplay:10.37,2013-03-13 08:32:00,
2013-03-13 03:37:00,26.3,17.8,30.07,West,278,7.9,8.1,70,0.00,OVC,,0.00,WeatherDisplay:10.37,2013-03-13 08:37:00,
2013-03-13 03:42:00,26.3,17.8,30.07,West,267,10.0,13.8,70,0.00,OVC,,0.00,WeatherDisplay:10.37,2013-03-13 08:42:00,
2013-03-13 03:47:00,26.3,17.5,30.07,WNW,287,11.4,11.4,69,0.00,OVC,,0.00,WeatherDisplay:10.37,2013-03-13 08:47:00,
2013-03-13 03:52:00,26.3,17.8,30.07,West,263,17.4,23.0,70,0.00,-SN,,0.00,WeatherDisplay:10.37,2013-03-13 08:52:00,
2013-03-13 03:57:00,26.3,18.2,30.07,WSW,251,5.7,10.4,71,0.00,-SN,,0.00,WeatherDisplay:10.37,2013-03-13 08:57:00,
2013-03-13 04:02:00,26.1,18.0,30.07,West,279,12.6,19.6,71,0.00,-SN,,0.00,WeatherDisplay:10.37,2013-03-13 09:02:00,
2013-03-13 04:07:00,26.1,17.6,30.07,West,273,9.6,9.6,70,0.00,-SN,,0.00,WeatherDisplay:10.37,2013-03-13 09:07:00,
2013-03-13 04:12:00,26.1,18.0,30.07,West,267,10.9,15.0,71,0.00,-SN,,0.00,WeatherDisplay:10.37,2013-03-13 09:12:00,
2013-03-13 04:17:00,26.1,17.6,30.08,WNW,292,12.0,13.8,70,0.00,-SN,,0.00,WeatherDisplay:10.37,2013-03-13 09:17:00,
2013-03-13 04:22:00,26.1,18.0,30.08,WNW,292,5.9,24.2,71,0.00,-SN,,0.00,WeatherDisplay:10.37,2013-03-13 09:22:00,
2013-03-13 04:27:00,26.0,17.9,30.08,WSW,240,18.6,18.6,71,0.00,-SN,,0.00,WeatherDisplay:10.37,2013-03-13 09:27:00,
2013-03-13 04:32:00,25.8,18.0,30.08,WSW,238,12.6,23.0,72,0.00,-SN,,0.00,WeatherDisplay:10.37,2013-03-13 09:32:00,
2013-03-13 04:38:00,25.7,17.9,30.08,WSW,249,4.2,9.2,72,0.00,-SN,,0.00,WeatherDisplay:10.37,2013-03-13 09:38:00,
2013-03-13 04:43:00,25.6,18.1,30.09,NW,306,11.2,18.4,73,0.00,-SN,,0.00,WeatherDisplay:10.37,2013-03-13 09:43:00,
2013-03-13 04:48:00,25.4,18.3,30.09,West,271,11.1,19.5,74,0.00,-SN,,0.00,WeatherDisplay:10.37,2013-03-13 09:48:00,
2013-03-13 04:53:00,25.4,18.3,30.09,SW,217,14.4,18.4,74,0.00,OVC,,0.00,WeatherDisplay:10.37,2013-03-13 09:53:00,
2013-03-13 04:58:00,25.3,18.2,30.09,WSW,251,6.6,10.5,74,0.00,OVC,,0.00,WeatherDisplay:10.37,2013-03-13 09:58:00,
2013-03-13 05:03:00,25.3,18.2,30.09,WSW,246,13.2,19.6,74,0.00,OVC,,0.00,WeatherDisplay:10.37,2013-03-13 10:03:00,
2013-03-13 05:08:00,25.3,18.2,30.10,West,274,17.7,17.7,74,0.00,OVC,,0.00,WeatherDisplay:10.37,2013-03-13 10:08:00,
2013-03-13 05:13:00,25.3,18.5,30.10,West,273,9.8,16.1,75,0.00,OVC,,0.00,WeatherDisplay:10.37,2013-03-13 10:13:00,
2013-03-13 05:18:00,25.1,18.3,30.10,West,263,11.2,11.5,75,0.00,OVC,,0.00,WeatherDisplay:10.37,2013-03-13 10:18:00,
2013-03-13 05:23:00,25.3,18.5,30.10,WNW,294,12.3,12.3,75,0.00,OVC,,0.00,WeatherDisplay:10.37,2013-03-13 10:23:00,
2013-03-13 05:28:00,25.3,18.8,30.11,West,278,7.9,15.0,76,0.00,OVC,,0.00,WeatherDisplay:10.37,2013-03-13 10:28:00,
2013-03-13 05:33:00,25.3,18.5,30.11,West,271,17.3,19.6,75,0.00,OVC,,0.00,WeatherDisplay:10.37,2013-03-13 10:33:00,
2013-03-13 05:38:00,25.3,18.5,30.11,WSW,246,10.0,15.0,75,0.00,OVC,,0.00,WeatherDisplay:10.37,2013-03-13 10:38:00,
2013-03-13 05:43:00,25.3,18.8,30.11,West,280,7.5,7.5,76,0.00,OVC,,0.00,WeatherDisplay:10.37,2013-03-13 10:43:00,
2013-03-13 05:48:00,25.3,18.8,30.11,WSW,250,12.2,19.6,76,0.00,OVC,,0.00,WeatherDisplay:10.37,2013-03-13 10:48:00,
2013-03-13 05:53:00,25.3,18.8,30.12,WNW,302,8.4,9.2,76,0.00,OVC,,0.00,WeatherDisplay:10.37,2013-03-13 10:53:00,
2013-03-13 05:58:00,25.3,18.8,30.12,WNW,288,5.6,5.8,76,0.00,OVC,,0.00,WeatherDisplay:10.37,2013-03-13 10:58:00,
2013-03-13 06:03:00,25.3,18.8,30.12,WSW,248,9.5,15.0,76,0.00,OVC,,0.00,WeatherDisplay:10.37,2013-03-13 11:03:00,
2013-03-13 06:08:00,25.4,18.9,30.12,West,261,7.5,9.0,76,0.00,OVC,,0.00,WeatherDisplay:10.37,2013-03-13 11:08:00,
2013-03-13 06:13:00,25.4,18.9,30.12,SW,229,11.2,16.1,76,0.00,OVC,,0.00,WeatherDisplay:10.37,2013-03-13 11:13:00,
2013-03-13 06:18:00,25.6,19.1,30.12,SW,225,10.1,10.4,76,0.00,OVC,,0.00,WeatherDisplay:10.37,2013-03-13 11:18:00,
2013-03-13 06:23:00,25.6,19.1,30.12,West,277,7.4,8.1,76,0.00,OVC,,0.00,WeatherDisplay:10.37,2013-03-13 11:23:00,
2013-03-13 06:28:00,25.6,19.1,30.12,West,280,11.5,13.8,76,0.00,OVC,,0.00,WeatherDisplay:10.37,2013-03-13 11:28:00,
2013-03-13 06:33:00,25.6,19.4,30.12,WSW,257,7.6,9.0,77,0.00,OVC,,0.00,WeatherDisplay:10.37,2013-03-13 11:33:00,
2013-03-13 06:38:00,25.6,19.1,30.12,West,269,4.9,5.8,76,0.00,OVC,,0.00,WeatherDisplay:10.37,2013-03-13 11:38:00,
2013-03-13 06:43:00,25.6,19.1,30.12,NW,313,17.0,24.2,76,0.00,OVC,,0.00,WeatherDisplay:10.37,2013-03-13 11:43:00,
2013-03-13 06:48:00,25.6,19.1,30.12,WNW,282,12.9,23.0,76,0.00,OVC,,0.00,WeatherDisplay:10.37,2013-03-13 11:48:00,
2013-03-13 06:53:00,25.6,19.1,30.13,WSW,257,14.9,21.0,76,0.00,-SN,,0.00,WeatherDisplay:10.37,2013-03-13 11:53:00,
2013-03-13 06:58:00,25.4,19.2,30.13,West,274,8.6,19.6,77,0.00,-SN,,0.00,WeatherDisplay:10.37,2013-03-13 11:58:00,
2013-03-13 07:03:00,25.4,19.2,30.13,West,261,8.2,10.5,77,0.00,-SN,,0.00,WeatherDisplay:10.37,2013-03-13 12:03:00,
2013-03-13 07:08:00,25.4,18.9,30.14,West,273,8.0,19.5,76,0.00,-SN,,0.00,WeatherDisplay:10.37,2013-03-13 12:08:00,
2013-03-13 07:13:00,25.3,18.5,30.14,WSW,252,18.7,19.6,75,0.00,-SN,,0.00,WeatherDisplay:10.37,2013-03-13 12:13:00,
2013-03-13 07:18:00,25.0,17.9,30.14,West,267,10.4,23.0,74,0.00,-SN,,0.00,WeatherDisplay:10.37,2013-03-13 12:18:00,
2013-03-13 07:23:00,24.8,18.0,30.14,West,268,24.0,29.9,75,0.00,-SN,,0.00,WeatherDisplay:10.37,2013-03-13 12:23:00,
2013-03-13 07:28:00,24.7,17.9,30.14,WSW,257,5.2,10.4,75,0.00,-SN,,0.00,WeatherDisplay:10.37,2013-03-13 12:28:00,
2013-03-13 07:33:00,24.5,17.7,30.14,WSW,242,6.2,8.1,75,0.00,OVC,,0.00,WeatherDisplay:10.37,2013-03-13 12:33:00,
2013-03-13 07:38:00,24.4,17.9,30.15,West,268,14.7,16.1,76,0.00,OVC,,0.00,WeatherDisplay:10.37,2013-03-13 12:38:00,
2013-03-13 07:43:00,24.4,17.9,30.16,West,260,9.7,11.5,76,0.00,OVC,,0.00,WeatherDisplay:10.37,2013-03-13 12:43:00,
2013-03-13 07:48:00,24.4,17.9,30.16,WSW,251,8.6,8.6,76,0.00,OVC,,0.00,WeatherDisplay:10.37,2013-03-13 12:48:00,
2013-03-13 07:53:00,24.5,18.3,30.16,WNW,292,4.8,9.2,77,0.00,-SN,,0.00,WeatherDisplay:10.37,2013-03-13 12:53:00,
2013-03-13 07:58:00,24.8,18.3,30.16,WSW,246,10.1,15.0,76,0.00,-SN,,0.00,WeatherDisplay:10.37,2013-03-13 12:58:00,
2013-03-13 08:03:00,25.3,18.5,30.16,West,269,7.4,16.1,75,0.00,-SN,,0.00,WeatherDisplay:10.37,2013-03-13 13:03:00,
2013-03-13 08:08:00,25.7,18.6,30.17,WSW,252,10.4,11.5,74,0.00,-SN,,0.00,WeatherDisplay:10.37,2013-03-13 13:08:00,
2013-03-13 08:13:00,25.8,18.7,30.17,West,273,8.6,16.1,74,0.00,OVC,,0.00,WeatherDisplay:10.37,2013-03-13 13:13:00,
2013-03-13 08:18:00,25.8,18.3,30.17,WNW,288,11.2,11.2,73,0.00,OVC,,0.00,WeatherDisplay:10.37,2013-03-13 13:18:00,
2013-03-13 08:23:00,25.7,18.2,30.17,West,275,8.5,19.6,73,0.00,OVC,,0.00,WeatherDisplay:10.37,2013-03-13 13:23:00,
2013-03-13 08:28:00,25.7,18.2,30.17,WSW,252,9.0,15.0,73,0.00,OVC,,0.00,WeatherDisplay:10.37,2013-03-13 13:28:00,
2013-03-13 08:33:00,25.7,18.6,30.18,West,272,11.4,16.1,74,0.00,OVC,,0.00,WeatherDisplay:10.37,2013-03-13 13:33:00,
2013-03-13 08:38:00,25.8,18.7,30.18,SW,234,4.5,6.0,74,0.00,OVC,,0.00,WeatherDisplay:10.37,2013-03-13 13:38:00,
2013-03-13 08:43:00,25.8,18.3,30.18,WNW,288,9.0,15.0,73,0.00,OVC,,0.00,WeatherDisplay:10.37,2013-03-13 13:43:00,
2013-03-13 08:48:00,25.8,18.3,30.19,WSW,253,10.1,20.7,73,0.00,OVC,,0.00,WeatherDisplay:10.37,2013-03-13 13:48:00,
2013-03-13 08:53:00,25.8,18.3,30.19,WNW,282,11.6,18.4,73,0.00,OVC,,0.00,WeatherDisplay:10.37,2013-03-13 13:53:00,
2013-03-13 08:58:00,25.8,17.7,30.19,WNW,287,11.5,16.1,71,0.00,OVC,,0.00,WeatherDisplay:10.37,2013-03-13 13:58:00,
2013-03-13 09:03:00,26.0,18.2,30.19,NW,307,5.4,8.1,72,0.00,OVC,,0.00,WeatherDisplay:10.37,2013-03-13 14:03:00,
2013-03-13 09:08:00,26.0,17.9,30.19,WNW,292,10.2,10.2,71,0.00,OVC,,0.00,WeatherDisplay:10.37,2013-03-13 14:08:00,
2013-03-13 09:13:00,26.0,17.9,30.19,West,260,3.9,9.2,71,0.00,OVC,,0.00,WeatherDisplay:10.37,2013-03-13 14:13:00,
2013-03-13 09:18:00,26.0,17.9,30.20,WSW,250,4.9,9.2,71,0.00,OVC,,0.00,WeatherDisplay:10.37,2013-03-13 14:18:00,
2013-03-13 09:23:00,26.1,18.0,30.20,WNW,290,5.7,15.0,71,0.00,OVC,,0.00,WeatherDisplay:10.37,2013-03-13 14:23:00,
2013-03-13 09:28:00,26.1,18.3,30.20,WNW,303,9.4,9.4,72,0.00,OVC,,0.00,WeatherDisplay:10.37,2013-03-13 14:28:00,
2013-03-13 09:33:00,26.1,18.0,30.20,West,277,11.8,13.8,71,0.00,OVC,,0.00,WeatherDisplay:10.37,2013-03-13 14:33:00,
2013-03-13 09:38:00,26.0,17.6,30.21,SW,236,19.7,19.7,70,0.00,OVC,,0.00,WeatherDisplay:10.37,2013-03-13 14:38:00,
2013-03-13 09:43:00,26.1,17.0,30.21,NW,312,15.0,16.1,68,0.00,OVC,,0.00,WeatherDisplay:10.37,2013-03-13 14:43:00,
2013-03-13 09:49:00,26.1,17.0,30.21,WNW,286,10.2,10.5,68,0.00,OVC,,0.00,WeatherDisplay:10.37,2013-03-13 14:49:00,
2013-03-13 09:54:00,26.3,17.5,30.21,WNW,302,11.8,19.6,69,0.00,OVC,,0.00,WeatherDisplay:10.37,2013-03-13 14:54:00,
2013-03-13 09:59:00,26.4,17.3,30.22,WNW,290,14.2,20.7,68,0.00,OVC,,0.00,WeatherDisplay:10.37,2013-03-13 14:59:00,
2013-03-13 10:04:00,26.4,16.6,30.22,NW,324,15.6,23.0,66,0.00,OVC,,0.00,WeatherDisplay:10.37,2013-03-13 15:04:00,
2013-03-13 10:09:00,26.6,16.8,30.22,WSW,250,11.2,23.0,66,0.00,OVC,,0.00,WeatherDisplay:10.37,2013-03-13 15:09:00,
2013-03-13 10:14:00,26.9,17.0,30.22,West,273,12.5,15.0,66,0.00,OVC,,0.00,WeatherDisplay:10.37,2013-03-13 15:14:00,
2013-03-13 10:19:00,27.5,18.3,30.22,NW,316,1.4,3.5,68,0.00,OVC,,0.00,WeatherDisplay:10.37,2013-03-13 15:19:00,
2013-03-13 10:24:00,27.5,17.6,30.22,West,262,13.1,19.6,66,0.00,OVC,,0.00,WeatherDisplay:10.37,2013-03-13 15:24:00,
2013-03-13 10:29:00,27.5,16.9,30.22,WNW,288,16.0,18.4,64,0.00,OVC,,0.00,WeatherDisplay:10.37,2013-03-13 15:29:00,
2013-03-13 10:34:00,27.5,16.9,30.22,NW,306,10.2,10.4,64,0.00,BKN,,0.00,WeatherDisplay:10.37,2013-03-13 15:34:00,
2013-03-13 10:39:00,27.5,17.3,30.23,West,259,14.9,16.1,65,0.00,BKN,,0.00,WeatherDisplay:10.37,2013-03-13 15:39:00,
2013-03-13 10:44:00,27.5,18.0,30.23,NW,313,5.6,8.1,67,0.00,BKN,,0.00,WeatherDisplay:10.37,2013-03-13 15:44:00,
2013-03-13 10:49:00,27.5,17.6,30.24,West,273,9.3,27.0,66,0.00,BKN,,0.00,WeatherDisplay:10.37,2013-03-13 15:49:00,
2013-03-13 10:54:00,27.2,17.3,30.24,West,261,13.7,23.0,66,0.00,OVC,,0.00,WeatherDisplay:10.37,2013-03-13 15:54:00,
2013-03-13 10:59:00,27.0,16.4,30.24,West,263,21.8,21.8,64,0.00,OVC,,0.00,WeatherDisplay:10.37,2013-03-13 15:59:00,
2013-03-13 11:04:00,27.3,16.7,30.24,WNW,303,12.3,13.8,64,0.00,OVC,,0.00,WeatherDisplay:10.37,2013-03-13 16:04:00,
2013-03-13 11:09:00,27.5,16.5,30.24,North,355,8.4,10.4,63,0.00,OVC,,0.00,WeatherDisplay:10.37,2013-03-13 16:09:00,
2013-03-13 11:14:00,27.6,16.6,30.24,WNW,295,10.4,19.6,63,0.00,-SN,,0.00,WeatherDisplay:10.37,2013-03-13 16:14:00,
2013-03-13 11:19:00,27.8,16.8,30.25,WNW,292,10.9,18.4,63,0.00,-SN,,0.00,WeatherDisplay:10.37,2013-03-13 16:19:00,
2013-03-13 11:24:00,27.8,16.8,30.25,NW,326,20.8,29.9,63,0.00,-SN,,0.00,WeatherDisplay:10.37,2013-03-13 16:24:00,
2013-03-13 11:29:00,27.9,17.3,30.25,WNW,284,5.9,9.2,64,0.00,-SN,,0.00,WeatherDisplay:10.37,2013-03-13 16:29:00,
2013-03-13 11:34:00,27.9,18.0,30.25,West,281,12.9,13.8,66,0.00,-SN,,0.00,WeatherDisplay:10.37,2013-03-13 16:34:00,
2013-03-13 11:39:00,27.8,18.6,30.25,West,281,8.1,10.4,68,0.00,-SN,,0.00,WeatherDisplay:10.37,2013-03-13 16:39:00,
2013-03-13 11:44:00,27.9,19.0,30.26,West,273,9.4,9.4,69,0.00,OVC,,0.00,WeatherDisplay:10.37,2013-03-13 16:44:00,
2013-03-13 11:49:00,28.1,18.9,30.26,West,269,5.9,10.4,68,0.00,OVC,,0.00,WeatherDisplay:10.37,2013-03-13 16:49:00,
2013-03-13 11:54:00,28.4,18.5,30.26,West,271,13.3,20.7,66,0.00,OVC,,0.00,WeatherDisplay:10.37,2013-03-13 16:54:00,
2013-03-13 11:59:00,28.8,18.9,30.26,WNW,296,8.4,9.2,66,0.00,OVC,,0.00,WeatherDisplay:10.37,2013-03-13 16:59:00,
2013-03-13 12:04:00,29.1,19.2,30.26,West,274,11.5,11.5,66,0.00,OVC,,0.00,WeatherDisplay:10.37,2013-03-13 17:04:00,
2013-03-13 12:09:00,28.8,18.9,30.26,WSW,251,11.7,13.8,66,0.00,OVC,,0.00,WeatherDisplay:10.37,2013-03-13 17:09:00,
2013-03-13 12:14:00,28.7,18.1,30.27,WNW,282,9.3,16.1,64,0.00,BKN,,0.00,WeatherDisplay:10.37,2013-03-13 17:14:00,
2013-03-13 12:19:00,29.0,16.8,30.26,SW,229,10.5,15.0,60,0.00,BKN,,0.00,WeatherDisplay:10.37,2013-03-13 17:19:00,
2013-03-13 12:24:00,29.4,17.2,30.26,WNW,282,19.0,19.6,60,0.00,BKN,,0.00,WeatherDisplay:10.37,2013-03-13 17:24:00,
2013-03-13 12:29:00,30.1,18.3,30.27,WNW,294,18.1,20.7,61,0.00,BKN,,0.00,WeatherDisplay:10.37,2013-03-13 17:29:00,
2013-03-13 12:34:00,30.4,17.0,30.27,WSW,244,17.2,23.0,57,0.00,BKN,,0.00,WeatherDisplay:10.37,2013-03-13 17:34:00,
2013-03-13 12:39:00,30.4,17.8,30.27,WNW,288,12.5,13.8,59,0.00,BKN,,0.00,WeatherDisplay:10.37,2013-03-13 17:39:00,
2013-03-13 12:44:00,30.1,16.3,30.27,West,274,15.7,18.4,56,0.00,BKN,,0.00,WeatherDisplay:10.37,2013-03-13 17:44:00,
2013-03-13 12:49:00,30.0,17.0,30.27,West,281,8.3,9.2,58,0.00,BKN,,0.00,WeatherDisplay:10.37,2013-03-13 17:49:00,
2013-03-13 12:54:00,30.3,16.5,30.27,NW,307,15.0,23.0,56,0.00,BKN,,0.00,WeatherDisplay:10.37,2013-03-13 17:54:00,
2013-03-13 12:59:00,30.1,17.1,30.27,WSW,246,6.8,16.1,58,0.00,BKN,,0.00,WeatherDisplay:10.37,2013-03-13 17:59:00,
2013-03-13 13:04:00,30.1,16.7,30.27,West,275,22.2,23.0,57,0.00,BKN,,0.00,WeatherDisplay:10.37,2013-03-13 18:04:00,
2013-03-13 13:09:00,30.0,17.4,30.28,WNW,285,6.3,16.1,59,0.00,BKN,,0.00,WeatherDisplay:10.37,2013-03-13 18:09:00,
2013-03-13 13:14:00,30.0,18.2,30.28,West,280,9.8,13.8,61,0.00,BKN,,0.00,WeatherDisplay:10.37,2013-03-13 18:14:00,
2013-03-13 13:19:00,30.1,18.3,30.28,NNW,329,7.2,15.0,61,0.00,BKN,,0.00,WeatherDisplay:10.37,2013-03-13 18:19:00,
2013-03-13 13:24:00,30.3,17.3,30.28,WSW,242,13.3,16.1,58,0.00,BKN,,0.00,WeatherDisplay:10.37,2013-03-13 18:24:00,
2013-03-13 13:29:00,30.0,17.8,30.28,West,259,8.0,15.0,60,0.00,BKN,,0.00,WeatherDisplay:10.37,2013-03-13 18:29:00,
2013-03-13 13:34:00,30.0,17.4,30.28,West,273,8.9,16.1,59,0.00,OVC,,0.00,WeatherDisplay:10.37,2013-03-13 18:34:00,
2013-03-13 13:39:00,30.1,17.1,30.28,WNW,295,11.2,11.2,58,0.00,OVC,,0.00,WeatherDisplay:10.37,2013-03-13 18:39:00,
2013-03-13 13:44:00,30.4,17.8,30.28,WNW,292,6.2,6.2,59,0.00,OVC,,0.00,WeatherDisplay:10.37,2013-03-13 18:44:00,
2013-03-13 13:49:00,30.6,18.0,30.28,West,280,12.8,16.1,59,0.00,OVC,,0.00,WeatherDisplay:10.37,2013-03-13 18:49:00,
2013-03-13 13:54:00,30.6,18.3,30.28,WNW,284,13.1,13.5,60,0.00,OVC,,0.00,WeatherDisplay:10.37,2013-03-13 18:54:00,
2013-03-13 13:59:00,30.6,18.3,30.28,West,259,12.9,23.0,60,0.00,OVC,,0.00,WeatherDisplay:10.37,2013-03-13 18:59:00,
2013-03-13 14:04:00,30.7,18.4,30.28,SW,233,8.9,9.2,60,0.00,OVC,,0.00,WeatherDisplay:10.37,2013-03-13 19:04:00,
2013-03-13 14:09:00,30.9,17.8,30.28,WSW,244,12.0,12.0,58,0.00,OVC,,0.00,WeatherDisplay:10.37,2013-03-13 19:09:00,
2013-03-13 14:14:00,30.7,18.1,30.28,WNW,288,10.4,10.4,59,0.00,OVC,,0.00,WeatherDisplay:10.37,2013-03-13 19:14:00,
2013-03-13 14:19:00,30.7,18.8,30.28,West,268,12.8,13.8,61,0.00,OVC,,0.00,WeatherDisplay:10.37,2013-03-13 19:19:00,
2013-03-13 14:24:00,31.0,18.3,30.28,WSW,246,10.5,16.1,59,0.00,OVC,,0.00,WeatherDisplay:10.37,2013-03-13 19:24:00,
2013-03-13 14:29:00,30.7,18.1,30.28,WNW,298,8.8,19.6,59,0.00,OVC,,0.00,WeatherDisplay:10.37,2013-03-13 19:29:00,
2013-03-13 14:34:00,30.9,17.8,30.28,WSW,253,6.5,10.4,58,0.00,OVC,,0.00,WeatherDisplay:10.37,2013-03-13 19:34:00,
2013-03-13 14:39:00,31.0,17.9,30.28,WNW,290,7.2,20.7,58,0.00,OVC,,0.00,WeatherDisplay:10.37,2013-03-13 19:39:00,
2013-03-13 14:44:00,31.2,18.5,30.28,WSW,256,9.3,13.8,59,0.00,OVC,,0.00,WeatherDisplay:10.37,2013-03-13 19:44:00,
2013-03-13 14:49:00,31.2,18.5,30.28,SW,232,11.8,23.0,59,0.00,OVC,,0.00,WeatherDisplay:10.37,2013-03-13 19:49:00,
2013-03-13 14:54:00,31.2,17.7,30.28,North,349,11.0,19.6,57,0.00,OVC,,0.00,WeatherDisplay:10.37,2013-03-13 19:54:00,
2013-03-13 14:59:00,31.3,17.8,30.28,West,265,19.2,20.7,57,0.00,OVC,,0.00,WeatherDisplay:10.37,2013-03-13 19:59:00,
2013-03-13 15:04:00,31.8,17.5,30.28,West,277,17.8,18.4,55,0.00,OVC,,0.00,WeatherDisplay:10.37,2013-03-13 20:04:00,
2013-03-13 15:10:00,31.6,17.7,30.28,NNW,348,12.6,15.0,56,0.00,OVC,,0.00,WeatherDisplay:10.37,2013-03-13 20:10:00,
2013-03-13 15:15:00,32.2,18.2,30.28,NW,305,10.0,10.4,56,0.00,OVC,,0.00,WeatherDisplay:10.37,2013-03-13 20:15:00,
2013-03-13 15:20:00,32.7,18.3,30.28,West,281,11.0,18.4,55,0.00,OVC,,0.00,WeatherDisplay:10.37,2013-03-13 20:20:00,
2013-03-13 15:25:00,33.1,19.5,30.28,NNW,343,16.8,23.0,57,0.00,OVC,,0.00,WeatherDisplay:10.37,2013-03-13 20:25:00,
2013-03-13 15:30:00,32.9,18.1,30.29,WSW,257,16.2,16.2,54,0.00,OVC,,0.00,WeatherDisplay:10.37,2013-03-13 20:30:00,
2013-03-13 15:35:00,32.5,17.7,30.28,WNW,292,21.0,24.0,54,0.00,OVC,,0.00,WeatherDisplay:10.37,2013-03-13 20:35:00,
2013-03-13 15:40:00,32.2,17.4,30.29,West,263,10.8,18.4,54,0.00,OVC,,0.00,WeatherDisplay:10.37,2013-03-13 20:40:00,
2013-03-13 15:45:00,32.1,17.7,30.29,WSW,256,7.9,13.8,55,0.00,OVC,,0.00,WeatherDisplay:10.37,2013-03-13 20:45:00,
2013-03-13 15:50:00,32.4,17.6,30.29,WNW,284,9.9,16.1,54,0.00,OVC,,0.00,WeatherDisplay:10.37,2013-03-13 20:50:00,
2013-03-13 15:55:00,32.5,17.2,30.29,West,262,8.0,20.0,53,0.00,BKN,,0.00,WeatherDisplay:10.37,2013-03-13 20:55:00,
2013-03-13 16:00:00,32.9,17.2,30.30,West,277,17.4,20.7,52,0.00,BKN,,0.00,WeatherDisplay:10.37,2013-03-13 21:00:00,
2013-03-13 16:05:00,33.1,17.4,30.29,WNW,290,16.0,23.0,52,0.00,BKN,,0.00,WeatherDisplay:10.37,2013-03-13 21:05:00,
2013-03-13 16:10:00,33.5,17.3,30.30,WNW,284,14.0,20.0,51,0.00,BKN,,0.00,WeatherDisplay:10.37,2013-03-13 21:10:00,
2013-03-13 16:15:00,33.8,17.1,30.30,WNW,288,13.0,18.0,50,0.00,BKN,,0.00,WeatherDisplay:10.37,2013-03-13 21:15:00,
2013-03-13 16:20:00,33.6,17.0,30.30,WNW,285,22.0,29.0,50,0.00,BKN,,0.00,WeatherDisplay:10.37,2013-03-13 21:20:00,
2013-03-13 16:25:00,33.8,18.5,30.30,West,271,12.0,18.0,53,0.00,BKN,,0.00,WeatherDisplay:10.37,2013-03-13 21:25:00,
2013-03-13 16:30:00,33.4,16.7,30.30,NW,304,10.5,13.8,50,0.00,BKN,,0.00,WeatherDisplay:10.37,2013-03-13 21:30:00,
2013-03-13 16:35:00,33.3,17.5,30.30,West,273,6.0,17.0,52,0.00,BKN,,0.00,WeatherDisplay:10.37,2013-03-13 21:35:00,
2013-03-13 16:40:00,33.2,16.5,30.30,West,271,20.0,30.0,50,0.00,BKN,,0.00,WeatherDisplay:10.37,2013-03-13 21:40:00,
2013-03-13 16:45:00,32.9,16.7,30.30,West,259,9.0,26.0,51,0.00,BKN,,0.00,WeatherDisplay:10.37,2013-03-13 21:45:00,
2013-03-13 16:50:00,33.5,17.7,30.29,WNW,290,11.9,15.0,52,0.00,BKN,,0.00,WeatherDisplay:10.37,2013-03-13 21:50:00,
2013-03-13 16:55:00,33.4,16.7,30.30,West,267,14.0,27.0,50,0.00,SCT,,0.00,WeatherDisplay:10.37,2013-03-13 21:55:00,
2013-03-13 17:00:00,33.1,16.9,30.30,WSW,240,12.9,23.0,51,0.00,SCT,,0.00,WeatherDisplay:10.37,2013-03-13 22:00:00,
2013-03-13 17:05:00,33.1,16.5,30.30,West,262,13.0,20.0,50,0.00,SCT,,0.00,WeatherDisplay:10.37,2013-03-13 22:05:00,
2013-03-13 17:10:00,33.2,16.5,30.30,West,271,15.0,24.0,50,0.00,SCT,,0.00,WeatherDisplay:10.37,2013-03-13 22:10:00,
2013-03-13 17:15:00,33.1,16.9,30.30,WSW,257,18.0,23.0,51,0.00,CLR,,0.00,WeatherDisplay:10.37,2013-03-13 22:15:00,
2013-03-13 17:20:00,32.9,16.7,30.30,WNW,286,12.5,23.0,51,0.00,CLR,,0.00,WeatherDisplay:10.37,2013-03-13 22:20:00,
2013-03-13 17:25:00,32.7,16.1,30.30,West,269,14.0,24.0,50,0.00,CLR,,0.00,WeatherDisplay:10.37,2013-03-13 22:25:00,
2013-03-13 17:30:00,32.9,17.2,30.30,SW,227,9.4,10.5,52,0.00,CLR,,0.00,WeatherDisplay:10.37,2013-03-13 22:30:00,
2013-03-13 17:35:00,33.0,16.8,30.30,West,274,8.0,18.0,51,0.00,CLR,,0.00,WeatherDisplay:10.37,2013-03-13 22:35:00,
2013-03-13 17:40:00,33.1,16.5,30.30,West,281,11.8,15.0,50,0.00,CLR,,0.00,WeatherDisplay:10.37,2013-03-13 22:40:00,
2013-03-13 17:45:00,32.9,16.7,30.30,West,276,10.1,15.0,51,0.00,CLR,,0.00,WeatherDisplay:10.37,2013-03-13 22:45:00,
2013-03-13 17:50:00,32.9,17.2,30.30,WNW,296,8.5,9.2,52,0.00,CLR,,0.00,WeatherDisplay:10.37,2013-03-13 22:50:00,
2013-03-13 17:55:00,32.9,17.6,30.30,West,267,13.0,18.0,53,0.00,CLR,,0.00,WeatherDisplay:10.37,2013-03-13 22:55:00,
2013-03-13 18:00:00,32.8,17.1,30.30,WSW,250,17.0,17.0,52,0.00,CLR,,0.00,WeatherDisplay:10.37,2013-03-13 23:00:00,
2013-03-13 18:05:00,32.8,16.6,30.31,West,274,12.0,21.0,51,0.00,CLR,,0.00,WeatherDisplay:10.37,2013-03-13 23:05:00,
2013-03-13 18:10:00,32.7,16.5,30.31,WNW,286,9.0,18.0,51,0.00,CLR,,0.00,WeatherDisplay:10.37,2013-03-13 23:10:00,
2013-03-13 18:15:00,32.5,16.8,30.31,West,275,8.0,14.0,52,0.00,CLR,,0.00,WeatherDisplay:10.37,2013-03-13 23:15:00,
2013-03-13 18:20:00,32.4,17.2,30.31,West,281,12.0,15.0,53,0.00,CLR,,0.00,WeatherDisplay:10.37,2013-03-13 23:20:00,
2013-03-13 18:25:00,32.4,17.6,30.31,West,263,8.3,15.0,54,0.00,CLR,,0.00,WeatherDisplay:10.37,2013-03-13 23:25:00,
2013-03-13 18:30:00,32.2,17.8,30.32,West,270,7.0,11.0,55,0.00,CLR,,0.00,WeatherDisplay:10.37,2013-03-13 23:30:00,
2013-03-13 18:35:00,32.1,18.2,30.32,West,269,5.0,12.0,56,0.00,CLR,,0.00,WeatherDisplay:10.37,2013-03-13 23:35:00,
2013-03-13 18:40:00,31.9,18.0,30.32,West,273,8.2,10.4,56,0.00,CLR,,0.00,WeatherDisplay:10.37,2013-03-13 23:40:00,
2013-03-13 18:45:00,31.8,18.3,30.32,West,269,5.4,5.8,57,0.00,CLR,,0.00,WeatherDisplay:10.37,2013-03-13 23:45:00,
2013-03-13 18:50:00,31.6,18.1,30.32,West,266,12.7,18.4,57,0.00,CLR,,0.00,WeatherDisplay:10.37,2013-03-13 23:50:00,
2013-03-13 18:55:00,31.6,18.1,30.32,West,266,7.0,11.0,57,0.00,CLR,,0.00,WeatherDisplay:10.37,2013-03-13 23:55:00,
2013-03-13 19:00:00,31.5,18.4,30.32,West,271,2.8,4.6,58,0.00,CLR,,0.00,WeatherDisplay:10.37,2013-03-14 00:00:00,
2013-03-13 19:05:00,31.3,18.2,30.32,West,275,7.7,9.2,58,0.00,CLR,,0.00,WeatherDisplay:10.37,2013-03-14 00:05:00,
2013-03-13 19:10:00,31.2,18.1,30.32,West,265,3.0,8.1,58,0.00,CLR,,0.00,WeatherDisplay:10.37,2013-03-14 00:10:00,
2013-03-13 19:15:00,31.0,18.3,30.32,West,280,3.4,8.1,59,0.00,CLR,,0.00,WeatherDisplay:10.37,2013-03-14 00:15:00,
2013-03-13 19:20:00,30.9,18.2,30.32,West,273,5.1,6.0,59,0.00,CLR,,0.00,WeatherDisplay:10.37,2013-03-14 00:20:00,
2013-03-13 19:25:00,30.9,18.2,30.32,West,263,1.6,3.5,59,0.00,CLR,,0.00,WeatherDisplay:10.37,2013-03-14 00:25:00,
2013-03-13 19:30:00,30.7,18.1,30.32,West,265,2.2,4.6,59,0.00,CLR,,0.00,WeatherDisplay:10.37,2013-03-14 00:30:00,
2013-03-13 19:35:00,30.7,18.4,30.32,WNW,292,3.6,4.6,60,0.00,CLR,,0.00,WeatherDisplay:10.37,2013-03-14 00:35:00,
2013-03-13 19:40:00,30.6,18.3,30.32,NNW,327,2.1,3.5,60,0.00,CLR,,0.00,WeatherDisplay:10.37,2013-03-14 00:40:00,
2013-03-13 19:45:00,30.4,18.2,30.32,WSW,257,8.4,9.2,60,0.00,CLR,,0.00,WeatherDisplay:10.37,2013-03-14 00:45:00,
2013-03-13 19:50:00,30.4,18.2,30.32,West,265,1.5,3.5,60,0.00,CLR,,0.00,WeatherDisplay:10.37,2013-03-14 00:50:00,
2013-03-13 19:55:00,30.3,18.1,30.33,NW,305,6.7,6.7,60,0.00,CLR,,0.00,WeatherDisplay:10.37,2013-03-14 00:55:00,
2013-03-13 20:00:00,30.1,17.9,30.32,WNW,290,0.2,1.1,60,0.00,CLR,,0.00,WeatherDisplay:10.37,2013-03-14 01:00:00,
2013-03-13 20:05:00,30.1,17.9,30.32,West,265,4.1,4.6,60,0.00,CLR,,0.00,WeatherDisplay:10.37,2013-03-14 01:05:00,
2013-03-13 20:10:00,30.0,17.8,30.33,West,273,4.0,4.6,60,0.00,CLR,,0.00,WeatherDisplay:10.37,2013-03-14 01:10:00,
2013-03-13 20:15:00,30.1,17.9,30.33,West,275,6.4,6.4,60,0.00,CLR,,0.00,WeatherDisplay:10.37,2013-03-14 01:15:00,
2013-03-13 20:20:00,30.0,17.8,30.32,West,272,5.1,5.8,60,0.00,CLR,,0.00,WeatherDisplay:10.37,2013-03-14 01:20:00,
2013-03-13 20:25:00,30.1,18.6,30.33,West,281,4.6,4.6,62,0.00,CLR,,0.00,WeatherDisplay:10.37,2013-03-14 01:25:00,
2013-03-13 20:30:00,30.0,18.2,30.33,West,259,1.3,3.5,61,0.00,CLR,,0.00,WeatherDisplay:10.37,2013-03-14 01:30:00,
2013-03-13 20:35:00,29.8,18.0,30.33,WSW,249,0.8,1.5,61,0.00,CLR,,0.00,WeatherDisplay:10.37,2013-03-14 01:35:00,
2013-03-13 20:40:00,29.7,17.9,30.33,WSW,254,1.4,3.5,61,0.00,CLR,,0.00,WeatherDisplay:10.37,2013-03-14 01:40:00,
2013-03-13 20:45:00,29.5,17.7,30.33,WSW,255,4.4,5.8,61,0.00,CLR,,0.00,WeatherDisplay:10.37,2013-03-14 01:45:00,
2013-03-13 20:50:00,29.5,18.1,30.33,West,273,3.0,4.6,62,0.00,CLR,,0.00,WeatherDisplay:10.37,2013-03-14 01:50:00,
2013-03-13 20:55:00,29.4,18.0,30.33,West,263,3.5,4.6,62,0.00,CLR,,0.00,WeatherDisplay:10.37,2013-03-14 01:55:00,
2013-03-13 21:00:00,29.3,17.9,30.33,West,263,0.2,1.1,62,0.00,CLR,,0.00,WeatherDisplay:10.37,2013-03-14 02:00:00,
2013-03-13 21:05:00,29.1,18.1,30.33,West,263,0.0,1.1,63,0.00,CLR,,0.00,WeatherDisplay:10.37,2013-03-14 02:05:00,
2013-03-13 21:10:00,29.0,18.0,30.33,West,263,1.2,1.5,63,0.00,CLR,,0.00,WeatherDisplay:10.37,2013-03-14 02:10:00,
2013-03-13 21:15:00,28.7,18.1,30.33,West,263,0.0,0.0,64,0.00,CLR,,0.00,WeatherDisplay:10.37,2013-03-14 02:15:00,
2013-03-13 21:20:00,28.5,17.9,30.33,West,263,0.0,0.0,64,0.00,CLR,,0.00,WeatherDisplay:10.37,2013-03-14 02:20:00,
2013-03-13 21:25:00,28.2,17.6,30.33,West,263,0.7,1.5,64,0.00,CLR,,0.00,WeatherDisplay:10.37,2013-03-14 02:25:00,
2013-03-13 21:30:00,28.2,17.9,30.33,West,263,0.5,1.1,65,0.00,CLR,,0.00,WeatherDisplay:10.37,2013-03-14 02:30:00,
2013-03-13 21:35:00,28.1,17.8,30.33,West,263,0.0,1.1,65,0.00,CLR,,0.00,WeatherDisplay:10.37,2013-03-14 02:35:00,
2013-03-13 21:40:00,27.9,18.0,30.33,West,263,0.2,1.1,66,0.00,CLR,,0.00,WeatherDisplay:10.37,2013-03-14 02:40:00,
2013-03-13 21:45:00,27.6,17.7,30.33,West,263,0.0,0.0,66,0.00,CLR,,0.00,WeatherDisplay:10.37,2013-03-14 02:45:00,
2013-03-13 21:50:00,27.3,17.4,30.33,West,263,0.0,0.0,66,0.00,CLR,,0.00,WeatherDisplay:10.37,2013-03-14 02:50:00,
2013-03-13 21:55:00,27.2,17.7,30.33,West,263,0.0,0.0,67,0.00,CLR,,0.00,WeatherDisplay:10.37,2013-03-14 02:55:00,
2013-03-13 22:00:00,26.9,17.7,30.33,West,263,0.8,1.5,68,0.00,CLR,,0.00,WeatherDisplay:10.37,2013-03-14 03:00:00,
2013-03-13 22:05:00,26.7,17.9,30.33,West,263,0.5,1.1,69,0.00,CLR,,0.00,WeatherDisplay:10.37,2013-03-14 03:05:00,
2013-03-13 22:10:00,26.6,17.8,30.33,West,263,0.2,0.0,69,0.00,CLR,,0.00,WeatherDisplay:10.37,2013-03-14 03:10:00,
2013-03-13 22:15:00,26.6,18.1,30.33,West,263,0.8,1.5,70,0.00,CLR,,0.00,WeatherDisplay:10.37,2013-03-14 03:15:00,
2013-03-13 22:20:00,26.4,17.9,30.33,West,263,0.0,0.0,70,0.00,CLR,,0.00,WeatherDisplay:10.37,2013-03-14 03:20:00,
2013-03-13 22:25:00,26.3,17.8,30.33,West,263,0.2,1.5,70,0.00,CLR,,0.00,WeatherDisplay:10.37,2013-03-14 03:25:00,
2013-03-13 22:30:00,26.3,18.2,30.34,West,263,0.3,0.0,71,0.00,CLR,,0.00,WeatherDisplay:10.37,2013-03-14 03:30:00,
2013-03-13 22:35:00,26.1,18.0,30.34,West,263,0.4,1.1,71,0.00,CLR,,0.00,WeatherDisplay:10.37,2013-03-14 03:35:00,
2013-03-13 22:40:00,26.1,18.0,30.34,West,263,0.1,0.0,71,0.00,CLR,,0.00,WeatherDisplay:10.37,2013-03-14 03:40:00,
2013-03-13 22:45:00,26.0,18.2,30.33,West,263,0.0,0.0,72,0.00,CLR,,0.00,WeatherDisplay:10.37,2013-03-14 03:45:00,
2013-03-13 22:50:00,26.0,18.2,30.33,West,263,0.0,0.0,72,0.00,CLR,,0.00,WeatherDisplay:10.37,2013-03-14 03:50:00,
2013-03-13 22:55:00,25.8,18.0,30.33,West,263,0.2,0.0,72,0.00,CLR,,0.00,WeatherDisplay:10.37,2013-03-14 03:55:00,
2013-03-13 23:00:00,25.8,18.0,30.33,West,263,0.0,1.0,72,0.00,CLR,,0.00,WeatherDisplay:10.37,2013-03-14 04:00:00,
2013-03-13 23:02:00,25.8,18.0,30.33,West,263,0.0,0.0,72,0.00,CLR,,0.00,WeatherDisplay:10.37,2013-03-14 04:02:00,
2013-03-13 23:05:00,25.7,18.2,30.33,West,263,0.0,2.0,73,0.00,CLR,,0.00,WeatherDisplay:10.37,2013-03-14 04:05:00,
2013-03-13 23:10:00,25.7,18.2,30.33,West,263,1.8,4.6,73,0.00,CLR,,0.00,WeatherDisplay:10.37,2013-03-14 04:10:00,
2013-03-13 23:15:00,25.7,18.2,30.33,West,263,0.0,2.0,73,0.00,CLR,,0.00,WeatherDisplay:10.37,2013-03-14 04:15:00,
2013-03-13 23:20:00,25.7,18.2,30.33,West,263,0.0,2.0,73,0.00,CLR,,0.00,WeatherDisplay:10.37,2013-03-14 04:20:00,
2013-03-13 23:25:00,25.6,18.1,30.33,West,263,0.0,2.0,73,0.00,CLR,,0.00,WeatherDisplay:10.37,2013-03-14 04:25:00,
2013-03-13 23:30:00,25.6,18.5,30.33,West,263,1.6,1.6,74,0.00,CLR,,0.00,WeatherDisplay:10.37,2013-03-14 04:30:00,
2013-03-13 23:35:00,25.6,18.5,30.33,West,263,1.4,3.5,74,0.00,CLR,,0.00,WeatherDisplay:10.37,2013-03-14 04:35:00,
2013-03-13 23:40:00,25.6,18.5,30.33,West,263,0.0,0.0,74,0.00,CLR,,0.00,WeatherDisplay:10.37,2013-03-14 04:40:00,
2013-03-13 23:45:00,25.4,18.3,30.33,West,263,0.5,1.5,74,0.00,CLR,,0.00,WeatherDisplay:10.37,2013-03-14 04:45:00,
2013-03-13 23:50:00,25.6,18.5,30.34,West,263,1.0,2.0,74,0.00,CLR,,0.00,WeatherDisplay:10.37,2013-03-14 04:50:00,
2013-03-13 23:55:00,25.6,18.5,30.35,West,263,1.8,3.5,74,0.00,CLR,,0.00,WeatherDisplay:10.37,2013-03-14 04:55:00,